ECMWFNIL_prec_cthk_021.txt.gz
RH
59 59 59 61 63 67 70 68 65 61 55 50 43 35 31 29 23 17 13 13 13 14 14 14 15 14 14 15 15 16 18 17 15 12 12 11 11 11 11 11 11 11
69 68 65 67 70 71 71 68 63 59 56 52 44 35 31 29 24 17 14 13 14 14 14 13 13 13 13 13 13 13 13 12 11 11 11 10 10 9 10 9 9 9
64 64 65 71 73 70 68 63 57 56 57 53 43 35 31 29 24 18 15 14 14 14 14 13 13 13 13 13 13 13 13 12 11 11 10 10 10 10 10 11 12 13
60 62 66 70 71 68 66 58 54 56 56 50 41 36 34 32 26 19 16 15 14 14 15 15 15 15 16 17 17 17 17 17 16 16 16 16 15 16 17 19 20 21
53 55 60 66 68 67 65 58 55 57 55 48 42 37 36 35 27 19 17 17 16 17 19 20 21 22 23 24 24 25 24 24 24 24 25 26 25 26 27 28 30 31
47 48 55 63 64 64 66 61 58 58 53 46 44 42 41 38 29 22 21 21 21 24 25 27 29 30 31 31 30 30 29 29 29 30 31 32 32 32 33 34 35 35
45 48 54 61 61 62 66 61 57 58 52 44 44 45 44 39 33 29 28 28 29 32 34 35 36 36 35 35 34 33 31 32 32 32 33 34 34 35 35 36 36 37
43 44 49 54 55 57 60 57 55 58 52 43 40 42 44 42 39 37 37 37 38 40 41 41 40 39 38 37 36 36 35 35 35 35 35 36 36 37 37 38 38 39
42 40 40 43 46 50 53 52 54 57 53 45 39 38 42 44 43 42 42 43 44 46 47 46 43 42 41 41 40 40 40 40 40 40 39 39 39 39 39 40 41 43
43 41 39 38 40 45 47 49 52 53 50 46 43 42 43 45 46 45 45 45 46 48 50 50 49 46 44 44 44 43 44 44 44 45 45 46 47 47 47 47 48 50
47 45 43 41 41 44 46 48 50 49 47 47 47 48 49 49 48 47 47 48 50 52 53 53 53 51 48 47 47 47 47 48 49 52 54 56 57 58 57 57 57 58
49 47 46 45 43 43 45 48 51 50 46 46 46 46 48 50 52 52 53 54 56 58 59 58 58 56 54 53 52 54 54 55 59 62 65 66 67 68 68 66 65 65
49 46 45 46 45 45 47 50 53 52 48 47 47 47 47 50 55 59 61 61 63 65 65 66 65 64 63 62 63 64 66 67 68 69 71 73 75 76 76 75 74 74
52 49 46 46 48 48 48 51 54 54 52 51 51 50 49 49 55 64 68 68 70 72 72 73 72 73 74 73 73 76 76 76 75 74 75 76 79 81 80 78 76 77
51 51 50 49 50 51 50 51 55 56 53 51 50 51 52 54 58 62 66 70 74 77 78 78 78 80 81 81 82 84 83 81 81 81 82 82 84 84 83 80 74 72
48 48 50 51 55 56 53 52 54 55 53 52 52 52 53 56 58 58 62 70 77 78 79 81 81 81 84 85 86 87 85 84 84 85 84 83 82 81 78 74 70 68
46 47 48 51 55 56 54 51 53 57 57 57 57 57 57 59 60 59 61 69 80 81 79 81 81 81 83 86 87 86 84 85 85 84 82 80 77 75 71 69 68 68
45 47 49 51 54 54 51 50 52 56 60 61 60 61 62 64 66 64 62 66 75 78 77 79 82 83 83 86 89 87 84 84 84 80 79 78 76 73 69 68 69 66
45 46 49 52 53 53 53 51 50 52 57 59 59 58 59 61 63 63 63 64 67 68 66 70 78 84 84 84 88 90 88 87 83 77 74 74 69 63 59 58 57 55
46 46 48 50 53 54 54 53 52 53 55 56 55 54 54 58 60 59 59 60 62 62 62 62 68 75 77 78 85 90 89 84 78 73 70 65 56 49 44 41 41 43
49 51 52 53 55 57 58 57 55 56 56 56 56 56 58 61 62 58 56 57 59 61 62 63 66 75 79 79 81 83 80 74 69 66 62 53 46 43 42 40 40 40
49 53 57 57 59 63 65 64 61 61 60 59 61 63 64 66 66 62 59 61 63 63 64 66 70 78 84 83 79 75 69 63 60 56 50 44 43 43 42 41 39 36
48 51 55 56 59 64 67 68 68 68 66 64 65 68 69 69 69 66 63 63 65 66 67 68 69 72 76 75 73 71 65 58 54 50 47 45 44 44 42 40 38 36
54 53 53 56 61 65 69 74 75 75 75 74 74 73 71 70 69 67 66 66 66 68 69 69 68 69 68 65 64 64 61 57 55 53 51 49 46 44 43 41 39 40
52 52 54 60 65 67 72 77 78 78 79 80 78 74 71 71 69 67 66 66 67 68 69 67 66 66 63 59 59 59 59 60 60 57 55 52 50 48 46 44 44 45
49 49 52 58 62 64 69 75 76 75 76 77 77 75 73 72 71 69 66 66 66 67 67 66 65 63 61 59 60 62 63 63 63 61 59 57 54 53 50 50 50 50

ECMWFNIL_prec_cthk_024.txt.gz
RH
51 53 51 48 49 49 51 54 57 60 61 64 68 61 46 40 37 33 28 26 28 25 20 17 15 16 19 20 25 32 30 24 21 21 23 27 29 28 25 23 22 21
59 60 57 54 57 59 57 57 58 61 58 57 60 54 42 39 37 31 27 26 25 19 14 14 13 13 18 19 21 25 20 13 12 13 13 14 15 15 14 12 12 12
60 63 61 60 63 63 61 59 57 58 56 53 52 46 38 38 36 31 28 27 25 20 14 14 13 12 14 14 15 16 13 10 11 11 11 11 11 10 10 10 10 10
54 60 64 64 64 63 63 61 55 51 51 50 47 41 37 38 34 30 28 28 28 23 15 13 13 13 13 13 13 13 11 11 10 10 10 10 10 11 11 12 14 16
50 50 55 57 58 57 59 59 52 46 47 49 46 39 39 38 33 29 27 28 30 24 16 15 15 16 17 17 18 18 17 17 17 17 17 16 17 18 20 22 23 25
48 43 45 50 53 54 57 55 48 44 45 48 45 39 38 35 30 29 29 29 32 26 19 18 20 21 23 24 26 27 28 29 27 27 26 25 26 27 28 30 31 32
46 45 46 49 53 55 55 53 49 47 46 46 44 41 38 33 29 30 31 34 35 29 24 25 27 28 31 33 34 33 33 34 33 33 33 31 31 32 33 34 35 35
47 46 45 47 49 50 50 49 49 48 44 41 41 42 39 33 29 30 33 36 37 33 31 31 32 35 37 38 38 37 37 37 37 39 39 36 35 37 36 36 37 37
49 46 45 43 41 42 45 47 48 46 42 39 39 41 41 35 30 30 33 37 39 38 38 38 38 40 41 42 42 41 40 40 40 42 42 40 42 43 42 40 41 41
51 48 47 44 39 40 44 47 48 46 43 43 42 40 40 39 34 32 34 37 40 42 42 42 42 42 43 45 47 46 45 44 44 43 43 45 48 49 48 47 47 48
55 51 48 45 42 43 46 47 49 49 46 47 47 42 39 40 39 38 37 38 40 43 45 45 45 46 46 48 49 50 49 48 48 48 47 47 49 50 52 54 56 59
58 54 51 48 46 48 48 46 48 51 48 45 45 42 39 38 39 40 38 38 40 43 46 47 49 49 50 50 52 53 53 52 52 52 52 52 52 54 56 59 62 66
58 57 54 53 52 51 48 46 48 52 50 45 41 40 39 39 41 43 43 43 43 42 44 48 53 55 55 56 57 57 57 57 56 56 58 59 61 64 66 67 68 70
55 56 55 56 55 54 51 48 50 54 55 51 45 41 40 41 42 44 45 48 49 47 46 49 52 55 57 61 64 65 63 62 62 62 64 67 70 72 73 73 74 75
52 54 55 54 53 55 55 53 52 55 59 60 55 49 46 45 45 44 43 45 48 51 52 53 54 56 60 64 68 70 70 69 68 68 71 74 78 78 77 77 77 78
50 51 52 52 51 52 53 54 54 56 58 62 62 61 57 54 52 50 46 45 47 49 53 56 60 63 66 69 71 71 73 75 75 75 77 80 81 81 80 79 80 81
51 50 50 49 49 50 52 54 55 55 55 56 59 61 60 57 55 54 52 49 49 49 50 54 60 63 66 70 74 74 74 76 78 79 82 83 84 83 81 80 82 84
50 50 49 47 46 47 49 52 54 55 55 53 54 56 57 56 55 55 55 54 53 53 55 58 61 62 66 72 77 76 75 77 81 84 86 88 87 85 82 83 85 87
47 49 49 49 48 46 45 47 49 51 52 53 54 57 59 60 60 58 58 58 58 58 61 63 62 61 65 71 75 75 73 75 81 85 85 87 89 86 84 85 87 85
44 46 49 50 50 49 47 46 46 49 51 52 54 58 61 62 62 62 61 61 61 62 63 64 62 63 68 71 74 75 69 69 77 82 82 85 89 86 81 81 80 77
40 41 43 45 47 48 48 46 46 47 50 52 54 57 58 58 58 59 58 57 58 61 63 63 62 62 64 66 70 72 66 62 70 79 84 88 87 81 76 73 69 65
40 41 41 43 45 47 48 48 48 49 50 52 55 58 59 57 55 54 54 54 55 57 61 63 62 59 59 60 64 67 65 65 71 79 84 86 82 78 75 69 61 57
43 43 45 45 45 47 49 49 49 49 50 51 52 56 59 59 57 55 56 58 58 59 61 62 61 60 60 61 65 67 68 70 75 77 80 81 79 75 69 62 56 54
47 47 46 45 44 47 50 51 50 50 50 50 51 54 55 56 57 60 62 63 63 64 66 65 63 62 62 65 69 72 73 74 76 75 75 75 72 65 58 55 53 51
49 48 46 44 43 44 45 49 52 53 53 53 55 57 56 54 57 63 68 70 71 72 72 69 65 63 65 70 74 75 74 76 77 73 67 63 61 57 53 52 51 50
48 46 45 43 43 42 40 42 45 48 49 50 55 61 60 58 63 70 74 77 79 81 80 74 68 67 69 72 75 75 72 71 71 66 59 55 54 53 51 49 48 49

ECMWFNIL_prec_cthk_027.txt.gz
RH
51 53 53 52 51 50 50 52 53 54 55 56 58 61 62 54 43 40 42 46 46 40 37 34 30 26 24 26 30 30 31 32 32 33 34 36 36 36 38 37 39 42
57 59 58 55 52 51 52 54 55 56 57 59 60 60 56 46 35 32 37 42 41 33 27 25 26 27 27 26 27 28 27 26 26 27 27 31 31 30 31 31 30 30
67 66 61 58 55 53 52 53 55 58 58 58 57 55 48 39 31 30 32 34 30 24 22 21 25 31 31 27 26 26 24 21 20 20 19 21 23 22 21 19 19 20
70 67 59 55 52 52 53 54 55 53 50 51 52 48 41 33 30 30 31 30 27 24 22 22 25 30 29 25 24 22 19 16 14 14 15 17 17 17 17 17 18 19
69 64 56 51 49 50 52 52 50 45 44 46 46 44 38 30 28 32 33 31 28 25 23 23 25 26 24 22 20 16 14 14 13 14 16 16 14 15 15 17 19 20
68 64 56 49 48 50 51 50 48 45 44 42 41 44 39 30 32 37 37 34 31 28 26 25 26 25 20 19 18 17 18 18 17 18 20 20 20 22 23 23 25 27
66 65 57 49 47 49 51 50 47 46 45 43 45 45 37 30 34 39 38 35 33 31 30 30 30 28 22 21 23 24 25 24 25 27 29 30 31 32 33 34 33 33
63 61 57 51 48 48 51 49 44 43 43 44 47 45 36 31 34 36 36 35 33 33 34 35 36 33 30 30 30 29 30 32 34 34 34 35 37 38 40 40 40 40
60 58 56 54 51 49 50 46 40 40 41 42 45 45 37 32 33 34 35 35 34 35 36 40 41 41 39 38 34 33 36 40 42 41 39 39 40 42 43 44 45 45
60 59 57 57 55 53 51 46 41 41 41 41 44 44 40 36 33 33 34 36 38 40 41 44 45 44 44 43 41 41 41 42 44 44 43 43 44 44 44 45 46 47
62 61 59 58 58 57 55 50 46 44 44 45 44 42 41 41 37 34 34 35 38 41 44 46 47 46 47 48 49 50 48 46 47 46 47 49 49 48 47 48 49 51
64 63 63 61 59 60 59 55 50 47 48 50 49 44 42 42 40 38 36 35 36 39 41 43 45 45 47 49 51 54 56 55 54 51 51 53 54 52 52 52 53 57
69 68 68 65 62 62 60 58 55 51 50 51 52 52 48 43 40 39 39 38 36 37 38 41 43 44 47 48 49 52 56 57 59 58 58 59 59 57 56 55 55 60
70 68 67 64 63 61 60 60 58 54 53 54 54 54 53 50 44 41 41 41 40 40 39 40 41 42 46 47 49 51 50 50 55 60 63 65 64 62 62 60 58 62
64 61 58 57 57 56 57 60 60 56 55 56 57 57 57 55 50 46 44 43 43 44 45 44 44 44 46 48 51 53 51 48 51 57 64 69 68 68 68 66 64 67
62 57 54 55 56 53 53 57 58 56 55 55 56 57 59 58 57 55 53 49 47 47 48 49 49 49 48 48 50 52 51 51 53 55 61 67 69 69 70 71 71 73
57 56 55 56 59 57 56 56 55 54 54 56 56 56 57 60 62 60 57 55 52 51 52 52 50 49 48 48 49 51 52 53 54 55 58 62 66 67 68 70 74 80
52 54 55 55 56 58 58 56 53 51 51 54 57 57 57 61 63 62 59 57 55 56 57 57 53 49 48 49 50 52 53 54 55 58 60 62 65 68 68 68 70 80
49 50 51 51 50 50 51 53 52 50 46 46 48 51 54 58 59 59 59 58 59 59 59 59 58 54 52 52 53 55 58 59 60 62 62 63 66 68 71 71 71 76
46 47 47 47 46 43 43 46 48 51 49 45 43 44 48 52 55 57 57 56 57 60 60 60 61 65 66 63 61 62 63 62 62 63 65 66 66 66 68 70 69 74
47 46 46 46 44 42 42 41 43 46 47 46 46 45 46 48 53 55 57 58 59 59 59 59 63 73 78 76 72 68 65 63 64 65 68 68 65 65 67 68 67 73
51 50 50 49 47 46 44 43 42 44 45 45 48 51 52 52 51 50 53 63 65 60 57 57 60 67 71 71 72 69 65 65 65 65 64 62 62 64 65 66 67 71
57 56 56 55 53 49 46 45 45 47 48 49 52 54 56 57 55 52 53 59 60 56 55 58 63 71 72 69 66 64 64 64 64 65 64 62 63 64 62 65 68 68
61 60 58 56 53 50 47 46 46 47 48 52 54 55 56 56 56 55 54 54 54 54 54 54 61 72 76 71 64 62 65 67 65 65 66 64 64 63 62 65 67 65
55 55 53 53 52 51 49 48 47 46 46 48 51 53 54 55 55 55 54 53 54 53 52 51 55 62 67 68 66 63 66 69 68 68 69 68 67 67 67 69 67 63
53 53 53 53 52 50 47 45 44 43 42 43 44 46 47 49 49 51 52 52 52 51 50 52 55 60 68 71 67 65 66 68 72 75 74 72 74 74 74 72 65 58

ECMWFNIL_prec_cthk_030.txt.gz
RH
58 60 57 49 47 51 50 49 49 48 48 49 51 55 54 48 46 43 38 36 38 39 39 34 31 31 32 34 36 34 34 35 36 37 38 39 41 43 43 43 42 45
59 61 57 53 54 55 53 50 49 49 49 51 53 54 49 42 39 36 32 32 33 33 32 29 28 31 31 32 31 30 31 31 32 34 35 35 37 38 35 34 34 37
62 62 59 57 58 54 48 45 45 47 48 50 51 49 43 37 34 31 27 24 23 24 25 23 26 30 32 31 29 28 29 28 27 29 29 28 28 29 28 30 33 35
61 61 58 60 61 52 43 39 41 43 44 45 45 43 39 35 30 25 21 18 18 19 20 21 25 29 30 30 30 29 26 22 21 21 20 20 20 22 25 27 27 27
62 61 61 62 61 52 43 42 43 42 40 41 41 40 37 32 27 21 16 17 18 18 18 19 22 27 29 30 29 27 22 17 15 14 12 13 14 16 21 24 23 22
62 62 64 65 59 51 48 47 45 42 40 40 39 38 36 32 27 21 18 19 18 17 17 17 19 25 29 28 27 26 21 16 14 12 12 13 14 16 21 24 23 23
64 63 65 65 57 50 49 46 43 41 39 38 39 40 37 35 31 25 23 23 22 21 20 17 17 21 24 26 30 29 24 19 18 17 17 19 20 22 25 26 26 27
63 62 64 62 56 50 47 44 41 38 35 36 40 40 38 37 31 27 27 26 25 25 23 20 19 19 23 29 32 31 28 27 26 24 23 25 27 30 31 31 30 30
62 62 64 61 55 52 52 48 42 37 31 34 40 40 40 39 30 26 28 28 27 27 26 26 26 26 29 33 32 32 35 37 35 32 31 33 35 35 35 34 32 31
67 64 64 63 59 58 59 54 46 38 31 32 39 41 42 42 32 27 28 28 28 30 29 30 32 32 33 34 33 34 39 42 40 36 35 37 38 38 37 37 36 36
66 61 61 64 64 63 62 56 50 45 36 32 36 40 45 45 36 29 28 28 28 31 32 34 35 34 35 36 35 37 41 43 42 40 40 41 43 43 42 42 42 42
63 62 62 63 65 65 62 58 55 53 45 37 35 38 43 47 41 34 30 27 27 29 31 33 33 33 38 40 38 38 40 42 42 42 42 43 44 46 49 49 49 49
64 64 64 65 65 65 64 61 59 58 52 46 41 39 39 44 44 41 37 31 28 28 29 31 32 32 37 42 42 42 43 43 43 44 43 43 43 45 49 49 50 53
66 68 69 71 70 67 65 62 60 58 55 52 48 44 42 45 46 46 45 39 33 31 29 29 32 33 37 40 41 43 43 42 43 44 44 46 45 46 48 47 47 52
69 71 73 73 70 66 63 60 56 55 54 54 53 50 49 52 51 50 51 48 42 38 35 32 33 35 40 43 44 45 44 42 42 42 43 46 48 49 52 51 51 52
69 70 70 68 65 63 62 59 55 53 53 53 53 52 51 53 52 50 51 52 50 47 43 41 40 41 43 44 45 46 45 42 40 40 40 43 45 49 53 55 56 56
67 65 63 60 58 59 59 57 54 53 52 52 52 52 51 52 53 53 53 54 54 53 52 50 50 50 50 49 48 48 48 46 43 41 40 41 44 47 51 52 54 56
64 62 58 53 52 53 53 52 50 50 51 51 52 51 50 48 48 49 51 54 56 58 57 57 58 59 60 62 62 60 58 55 51 47 45 44 47 50 50 51 53 57
58 57 53 49 48 47 47 49 49 48 48 47 45 46 46 44 41 41 43 46 50 54 56 59 63 65 67 71 72 70 65 59 56 54 51 49 51 54 55 57 61 66
52 51 51 50 48 45 45 46 46 46 46 44 42 42 42 42 41 40 41 42 44 48 52 56 60 64 66 68 70 70 67 61 58 57 58 57 58 60 64 70 75 75
51 51 52 51 50 49 48 47 45 45 46 45 45 44 43 41 40 40 41 42 44 46 48 49 52 57 58 59 63 68 69 66 62 59 60 61 62 65 69 76 82 81
54 55 55 54 54 52 50 49 47 47 47 47 47 46 45 43 42 41 41 42 43 46 47 47 47 50 52 54 59 63 63 61 58 58 60 59 60 63 65 68 74 75
60 59 58 60 61 58 54 53 52 52 52 52 51 49 47 46 46 45 43 43 43 45 49 50 50 50 50 51 54 55 54 52 51 54 58 58 59 63 65 65 68 68
69 69 66 68 70 69 64 62 61 60 60 58 55 52 50 50 49 47 46 46 44 44 48 51 51 53 54 54 55 55 54 54 51 51 55 56 55 59 63 63 65 67
72 72 71 72 73 72 70 67 65 63 60 55 52 49 48 47 46 45 44 44 43 43 45 47 50 52 55 57 57 56 56 56 54 54 54 54 54 58 62 62 63 65
65 66 67 67 67 67 66 63 61 57 54 50 47 45 45 44 43 41 40 40 40 41 42 43 45 46 47 49 52 54 55 55 57 58 56 55 57 60 59 60 64 66

ECMWFNIL_prec_cthk_033.txt.gz
RH
59 59 54 52 50 47 48 50 51 50 47 46 46 47 51 49 45 49 49 39 34 34 37 38 35 35 37 37 37 37 38 40 39 38 38 39 38 40 41 42 45 52
59 58 54 52 53 55 57 58 56 51 46 47 48 49 50 47 44 47 46 38 34 33 35 35 33 34 37 37 36 36 37 40 40 38 39 38 38 38 38 38 40 45
60 59 55 54 56 60 63 60 57 52 47 46 48 50 49 45 41 43 40 34 31 30 32 33 33 34 36 35 34 36 36 38 39 38 38 35 33 33 33 32 33 35
59 59 57 57 60 64 64 58 55 56 53 48 49 50 46 40 38 37 32 27 24 25 27 31 33 34 35 35 34 34 35 35 35 36 34 31 29 29 29 28 28 30
60 62 61 61 62 64 61 53 53 57 56 51 49 46 41 36 33 28 22 21 21 21 22 25 29 32 33 34 34 35 35 33 31 30 29 28 27 27 27 27 28 28
63 65 64 64 66 64 58 53 54 56 54 50 48 44 40 35 30 24 20 20 21 19 17 19 25 29 30 31 32 33 32 29 27 25 23 24 25 25 24 24 23 23
65 65 63 65 66 61 55 55 55 53 49 47 46 46 42 36 29 25 24 23 22 20 17 17 20 23 25 27 28 28 27 26 24 21 21 24 24 24 24 23 22 21
69 69 67 67 64 58 56 58 54 47 41 42 45 46 43 38 30 27 28 29 26 23 20 18 19 22 25 27 27 28 29 29 27 24 24 26 25 24 26 27 26 25
73 72 71 69 65 61 61 59 51 44 38 40 47 48 47 43 34 29 32 33 30 27 24 22 24 27 30 29 30 34 35 35 34 32 32 33 32 31 31 33 34 33
71 70 71 72 68 64 63 57 51 48 43 44 49 51 51 48 36 29 32 34 32 30 29 29 31 34 35 33 36 40 41 41 41 41 41 41 40 38 37 39 40 41
69 67 70 71 66 63 63 57 51 50 46 47 52 52 53 50 39 31 31 32 32 32 31 32 34 34 34 36 41 44 44 45 44 44 43 42 40 38 37 39 40 42
71 68 70 71 66 62 62 59 55 51 48 50 54 53 54 52 43 36 32 30 30 30 31 33 33 31 31 34 38 40 41 42 43 43 43 41 39 36 35 35 36 40
77 74 75 74 68 65 63 59 57 56 54 53 53 51 52 52 47 43 39 34 30 30 30 32 32 31 30 29 31 33 36 40 44 46 47 46 44 40 38 37 36 38
81 77 75 73 70 69 66 62 60 61 60 56 52 49 49 51 50 49 48 43 36 33 32 32 32 33 33 31 29 31 34 39 43 46 47 48 48 47 46 44 42 41
80 73 71 72 71 68 66 64 64 63 59 55 53 53 52 50 50 50 50 49 46 41 37 35 34 34 35 35 34 34 35 37 39 40 41 43 44 45 47 48 48 47
75 70 71 70 69 68 69 68 67 64 58 53 53 55 54 51 49 49 49 49 49 48 47 44 42 41 40 40 39 40 41 41 40 39 39 41 42 42 44 45 47 47
67 67 71 71 68 69 69 68 69 66 60 56 54 54 52 51 50 48 48 47 48 50 50 49 49 49 47 45 44 44 45 46 46 45 45 48 49 49 49 48 48 47
67 66 67 67 64 61 61 64 67 64 58 56 55 53 52 51 50 48 47 47 47 48 48 48 49 49 48 48 48 47 47 49 51 52 53 55 56 56 55 53 52 51
65 66 66 65 62 61 62 66 68 64 57 54 52 50 50 51 50 50 48 46 45 45 45 45 44 43 43 44 46 47 48 50 53 56 58 57 55 55 55 53 53 57
57 60 62 62 63 63 61 61 61 58 53 51 50 49 49 50 50 48 45 43 41 41 41 42 41 41 41 42 43 45 47 47 49 53 55 54 54 56 55 54 55 59
56 57 57 57 58 56 54 53 55 54 51 47 45 45 46 48 49 48 46 44 42 41 41 41 40 40 41 41 41 43 44 44 45 48 49 50 53 57 57 56 56 57
60 59 58 58 57 54 50 49 50 52 50 47 46 46 46 46 47 47 47 47 46 45 44 42 42 42 41 40 41 42 43 43 43 45 47 47 51 55 55 54 55 55
60 59 59 60 60 59 57 54 52 50 50 49 50 52 50 49 48 48 48 48 47 46 45 43 42 42 41 40 41 42 43 44 43 45 46 47 48 50 51 52 53 52
63 63 63 64 64 63 63 63 60 58 56 56 57 57 55 53 51 50 49 50 49 46 45 45 44 43 42 41 41 41 43 44 45 46 48 47 46 46 47 47 49 50
69 69 69 69 68 67 66 66 65 65 65 65 67 66 62 58 56 54 51 51 50 48 46 46 46 43 42 41 40 40 40 40 42 46 48 48 48 48 47 47 47 48
71 71 71 71 71 70 69 68 67 66 66 65 65 63 59 56 56 55 53 52 53 52 48 47 45 43 41 40 39 39 38 38 39 41 43 45 48 50 51 50 49 48

ECMWFNIL_prec_cthk_036.txt.gz
RH
74 72 67 63 60 56 53 50 49 50 49 45 43 43 42 42 41 41 43 43 41 37 33 32 33 32 29 27 29 32 34 36 37 37 37 38 39 38 38 40 44 48
69 71 67 60 56 55 56 58 58 55 52 47 45 45 45 45 42 41 43 42 39 35 32 31 31 30 26 26 30 32 34 36 37 37 39 41 41 39 40 42 45 49
66 68 64 58 58 58 59 62 61 58 54 53 52 47 46 47 44 40 41 40 36 34 34 33 31 28 24 24 27 31 33 36 37 37 39 41 41 39 41 43 42 44
64 66 63 61 61 60 61 64 63 61 60 60 59 53 51 50 44 39 40 37 32 32 34 34 31 28 24 22 26 30 33 37 38 38 39 39 38 37 38 38 37 37
62 64 64 64 63 61 63 66 64 63 64 65 64 61 56 49 42 37 35 30 25 28 32 31 29 26 23 23 25 28 33 37 38 38 37 34 33 33 32 30 30 31
64 64 64 65 64 62 64 67 63 63 66 66 68 66 56 47 41 35 29 22 20 25 27 27 26 24 22 23 24 25 31 35 37 36 33 30 29 29 29 29 29 31
68 67 65 65 65 62 64 66 62 63 66 66 67 63 53 45 40 33 26 21 21 24 24 24 24 22 22 24 23 23 27 31 35 36 31 27 26 25 27 29 30 32
69 70 70 69 68 66 65 64 61 62 61 60 61 57 51 47 40 31 27 25 24 23 23 23 22 20 21 23 23 23 24 26 31 33 30 27 27 26 26 27 28 28
72 73 73 72 72 73 71 66 63 60 52 50 51 52 53 51 42 34 33 31 27 23 22 22 21 20 21 22 22 22 21 23 27 29 29 27 27 26 26 26 27 27
79 80 77 75 76 74 72 70 69 60 48 44 47 50 55 54 46 41 41 39 34 26 22 22 23 22 22 22 23 23 22 23 25 28 27 26 26 25 25 26 28 30
83 85 81 79 79 76 74 76 72 61 51 47 49 53 56 54 47 43 44 43 39 31 25 25 25 26 26 27 27 27 27 27 28 30 29 29 29 29 29 30 30 31
87 88 85 84 85 81 79 78 72 63 57 52 53 56 57 54 48 44 44 43 40 36 32 29 28 29 30 31 30 29 29 31 32 33 32 32 32 33 33 34 33 33
84 88 89 88 88 83 79 77 71 66 61 55 55 59 61 59 54 48 45 41 39 39 36 34 32 30 30 32 32 30 30 32 35 36 35 35 35 35 35 36 36 37
77 84 89 88 83 79 77 77 75 71 68 64 61 60 63 65 60 53 48 43 38 37 37 37 36 32 30 32 35 34 34 35 36 37 38 37 37 38 40 40 40 40
75 81 87 84 77 75 76 76 78 77 75 72 68 63 64 67 65 58 54 49 43 40 38 39 40 37 35 35 36 36 37 38 39 41 41 40 40 41 43 45 45 45
79 82 84 80 77 81 83 80 81 81 79 74 69 64 62 64 65 62 58 56 53 49 45 42 42 42 41 40 40 39 39 40 42 44 45 45 45 44 44 47 49 52
79 78 79 76 77 85 86 80 76 77 78 73 66 63 62 60 60 60 59 58 57 57 55 52 48 45 43 43 43 44 44 44 45 47 48 49 48 46 44 45 49 53
76 72 73 73 76 80 80 78 78 80 82 77 67 65 65 61 59 59 58 56 54 53 54 54 53 51 47 45 44 44 44 43 43 43 44 46 46 46 46 46 47 50
72 70 72 73 74 74 74 78 82 82 79 75 68 67 66 62 59 58 57 55 52 49 47 47 48 49 49 49 48 48 47 45 43 41 40 39 39 41 43 45 46 47
65 66 68 70 69 69 68 69 71 71 68 66 68 72 73 68 61 58 57 55 52 50 47 45 45 46 46 47 46 47 47 47 47 46 45 43 41 40 41 42 43 44
59 61 63 65 65 65 67 67 66 66 65 63 67 72 75 71 65 62 62 58 54 51 49 47 47 46 46 45 44 42 42 42 42 44 45 45 46 47 48 50 50 49
64 64 63 64 64 65 67 68 67 66 66 64 65 65 64 60 58 57 57 55 54 52 51 50 49 48 47 47 46 44 42 40 38 38 38 40 42 45 48 52 54 55
69 67 65 65 65 65 65 65 63 63 63 63 62 61 56 52 50 49 47 48 49 50 49 48 48 49 49 49 49 47 46 45 43 39 38 40 42 45 48 52 55 56
71 68 66 65 65 65 65 65 64 63 63 62 62 60 58 55 53 53 52 51 50 51 51 50 49 48 49 50 50 49 48 48 48 45 42 44 47 49 51 53 55 54
73 70 68 66 66 65 65 66 67 66 66 65 65 65 65 63 61 61 60 59 57 57 57 56 53 51 49 50 50 49 46 45 45 44 43 43 45 48 51 53 56 55
74 72 70 68 67 66 66 66 66 66 66 65 64 64 65 65 65 65 65 65 65 64 63 62 60 58 54 51 48 46 45 43 43 45 46 44 44 47 52 57 59 58

ECMWFNIL_prec_cthk_042.txt.gz
RH
66 66 64 61 63 65 62 57 52 52 55 55 54 51 46 42 39 37 37 37 37 38 38 37 35 32 31 31 35 40 43 46 48 46 44 42 43 46 47 46 45 46
70 70 68 66 67 68 65 59 55 56 58 58 57 54 49 48 43 36 35 37 37 38 37 36 33 31 29 28 31 37 41 44 42 39 38 37 38 41 44 44 43 44
71 71 71 71 70 69 67 63 61 59 57 57 58 54 51 52 47 41 37 37 38 38 37 35 33 30 28 27 29 33 37 38 37 35 35 36 36 37 39 40 41 42
71 71 72 74 74 73 71 67 64 62 58 56 57 54 52 52 50 45 40 39 40 40 37 36 34 30 28 27 29 31 32 33 34 33 33 33 34 36 37 37 38 39
70 69 72 76 78 77 73 67 65 65 61 60 61 58 54 52 50 46 41 41 42 41 38 37 35 30 27 28 30 31 31 32 32 32 31 32 34 36 36 38 40 42
68 67 71 77 78 72 66 63 63 63 61 61 63 63 59 53 48 45 41 39 38 36 36 38 36 30 26 27 30 30 31 32 32 32 32 33 34 35 35 37 41 43
66 67 70 72 69 63 58 58 60 61 60 61 62 62 61 54 47 45 43 39 33 29 31 37 37 29 25 28 31 31 32 33 32 32 32 31 31 32 33 35 38 39
63 63 65 65 64 61 57 56 58 61 63 63 62 61 58 52 46 44 44 38 30 25 27 34 34 27 24 28 31 32 33 33 32 31 30 28 27 28 29 30 33 35
63 62 62 63 65 65 63 60 60 63 64 62 61 58 55 50 45 45 45 38 31 27 28 31 31 25 23 27 31 32 33 33 32 30 28 25 24 25 26 26 28 31
67 66 66 64 65 67 67 67 66 65 64 62 59 55 52 49 45 46 47 40 31 28 29 30 29 26 23 26 29 30 31 31 30 31 29 25 23 24 24 23 24 27
72 72 71 69 69 69 71 74 73 70 68 65 60 56 55 50 46 48 50 42 33 29 30 31 31 29 28 28 29 30 31 30 29 30 30 27 24 24 24 23 23 24
74 72 71 71 71 70 72 76 76 74 72 69 64 62 61 54 47 49 51 45 37 33 32 32 33 34 33 33 33 32 30 29 26 27 29 29 27 26 25 25 24 25
74 71 71 72 72 72 75 77 78 77 76 73 69 67 67 59 49 49 51 45 40 40 39 38 38 38 37 37 37 35 31 28 26 26 29 31 31 30 28 26 27 28
76 74 74 76 77 78 80 82 83 83 82 80 76 73 70 63 53 52 53 47 42 43 44 45 45 43 40 39 40 39 37 35 33 30 30 32 33 32 31 30 30 31
80 79 81 83 83 82 84 86 87 87 87 85 83 78 73 66 57 55 57 53 48 46 46 46 45 44 43 42 42 42 41 41 41 37 33 34 36 34 34 34 34 34
83 84 84 86 88 86 86 87 87 86 87 85 84 81 74 66 59 58 61 59 53 47 44 44 43 44 46 47 46 44 42 41 41 39 36 37 38 38 37 37 37 38
85 83 84 86 86 85 84 83 82 82 82 82 82 81 75 66 60 59 62 63 57 47 41 41 44 48 49 50 49 48 44 41 39 39 37 37 37 38 38 39 39 39
86 84 83 83 83 84 83 83 82 81 81 82 84 82 77 70 64 62 63 65 62 55 48 44 45 48 50 50 49 48 46 43 42 41 41 39 38 38 38 38 40 41
84 85 84 83 84 87 86 85 84 82 82 85 86 82 76 71 68 66 66 67 66 64 60 54 49 49 50 49 49 47 47 46 46 46 45 44 44 42 41 41 41 42
78 80 84 86 87 86 85 82 79 79 82 85 85 80 73 68 68 70 70 69 68 68 67 64 59 57 55 52 50 50 49 49 49 48 48 48 48 47 46 46 46 46
75 73 78 85 87 85 81 77 75 80 84 85 82 77 71 69 72 73 71 68 67 67 66 65 62 61 60 58 56 54 53 53 52 51 50 49 48 47 47 47 47 47
70 68 72 79 83 82 77 73 74 80 83 81 77 74 72 72 73 71 68 67 67 65 66 66 64 61 59 58 57 54 54 53 53 52 50 49 48 47 46 45 45 44
63 64 66 71 74 75 73 71 72 75 76 74 72 71 71 71 71 68 66 67 68 67 67 69 66 61 57 56 56 54 53 53 51 51 51 51 51 51 50 49 49 48
62 62 64 66 68 70 70 69 69 69 71 72 72 72 73 73 72 71 68 68 69 68 66 65 62 58 56 56 57 56 55 54 52 51 51 51 52 53 52 52 52 52
69 68 68 69 70 70 69 68 68 68 69 70 71 73 75 75 74 73 71 70 69 67 65 64 62 60 57 56 56 55 54 54 53 52 53 52 53 53 52 52 52 52
78 76 75 75 75 75 73 72 71 69 68 69 69 70 70 72 72 72 72 71 70 69 68 68 68 67 64 62 61 60 59 58 57 56 56 56 57 57 56 57 57 57

ECMWFNIL_prec_cthk_045.txt.gz
RH
71 67 64 63 61 58 56 55 56 58 59 57 52 47 45 43 42 42 40 38 40 42 41 40 40 38 35 32 30 33 38 40 43 45 47 49 51 51 50 48 47 48
72 69 68 66 64 62 62 61 62 63 62 58 52 47 47 47 45 42 40 40 41 42 42 41 39 37 34 30 29 33 35 36 41 45 47 48 47 46 48 48 48 48
73 72 72 69 66 65 65 66 68 67 64 59 53 50 51 52 48 43 42 43 43 43 43 42 40 37 33 28 27 30 32 32 36 39 41 41 39 39 43 44 46 47
73 73 73 69 66 65 66 68 69 68 66 62 58 57 57 55 50 44 43 44 44 43 42 42 41 37 31 27 25 28 29 29 30 32 34 36 35 36 38 40 42 43
75 74 72 69 67 67 67 69 69 69 70 68 63 60 58 55 50 43 42 44 44 41 40 41 38 33 28 27 27 28 28 28 29 31 33 34 34 35 36 37 39 40
76 74 71 68 68 68 69 70 71 72 73 72 67 63 59 55 51 45 41 43 43 39 37 36 33 28 26 28 30 29 29 29 30 31 32 32 33 35 36 36 37 40
75 73 70 68 68 69 70 71 73 72 72 71 69 65 61 57 54 50 44 42 42 39 34 32 29 25 26 30 32 32 30 30 31 32 32 32 33 34 34 36 39 42
76 73 70 69 68 66 67 70 71 70 66 64 63 61 58 55 53 52 48 44 44 40 34 32 30 26 27 32 34 33 32 32 32 32 32 31 33 34 33 35 39 43
77 73 69 68 65 61 62 67 68 64 60 59 58 57 55 53 52 52 50 46 46 43 35 32 30 27 28 34 35 34 32 32 32 32 32 31 31 32 32 33 35 39
75 71 68 67 63 58 60 64 64 61 57 57 57 55 54 54 54 53 49 46 47 45 36 32 29 27 28 33 36 35 32 32 32 32 31 30 30 31 32 32 32 35
73 70 68 66 62 59 60 62 63 62 59 56 55 55 55 55 55 54 49 46 48 44 36 32 30 29 31 35 37 36 33 30 30 31 32 31 31 32 33 31 31 34
72 71 70 68 65 63 63 63 63 64 62 59 56 56 58 58 58 58 53 51 49 42 33 30 30 31 34 37 39 38 35 31 29 30 32 33 33 33 33 32 31 32
77 77 77 75 72 69 68 68 67 66 65 64 63 64 64 64 66 66 63 61 56 43 33 31 31 32 34 35 37 38 37 34 31 31 34 36 35 35 33 31 29 29
81 81 80 79 78 76 74 71 69 68 66 66 69 71 72 71 71 70 67 66 61 47 37 36 35 35 36 35 35 36 36 34 33 32 34 37 37 37 34 31 28 28
82 81 81 85 85 81 76 73 72 71 69 69 72 75 77 76 75 73 68 68 64 50 39 39 40 40 41 41 40 40 38 37 36 34 34 35 37 37 34 31 29 29
81 81 83 86 86 81 78 79 79 79 78 78 79 82 82 80 80 76 70 67 65 55 44 41 42 44 45 46 46 44 41 40 41 41 39 38 38 37 35 33 33 33
82 84 85 86 86 84 83 83 83 84 85 85 87 86 82 81 82 79 72 67 62 56 49 44 45 47 48 49 49 46 44 43 45 47 46 44 43 42 40 37 37 37
83 85 86 85 87 88 87 86 86 87 88 87 85 82 78 79 80 77 74 68 59 54 53 51 50 50 49 49 48 46 45 46 46 48 49 48 46 44 42 39 38 38
86 87 88 86 86 86 86 86 86 86 85 83 82 79 77 80 80 77 74 69 62 58 57 57 57 54 50 46 45 44 45 46 47 48 50 50 47 45 43 42 40 38
89 88 88 87 86 85 83 84 85 85 84 82 82 81 80 82 83 81 77 73 69 64 60 60 62 62 58 53 48 46 45 46 48 50 51 51 50 49 48 48 46 44
86 83 84 85 85 84 83 84 86 87 86 84 82 81 79 81 84 85 82 78 75 69 64 64 65 66 66 63 60 56 54 51 50 51 52 53 53 52 52 51 51 50
84 82 82 82 82 81 81 84 86 86 85 83 81 78 77 80 85 87 85 80 76 70 67 67 68 69 69 68 67 66 64 62 59 57 57 57 56 55 56 55 54 54
81 81 81 79 79 80 81 82 82 81 80 79 77 76 75 80 85 87 83 78 74 70 67 67 67 68 67 66 65 66 67 67 64 61 60 60 59 58 56 56 55 53
71 72 74 74 73 76 78 79 77 76 74 73 73 72 73 76 81 82 79 75 72 70 68 66 65 64 62 61 62 64 66 67 65 62 60 59 61 61 60 59 58 56
63 64 66 67 67 67 67 68 68 67 67 66 66 66 67 68 70 70 70 69 68 67 66 64 63 63 61 60 60 60 61 63 63 61 59 57 58 60 61 63 62 62
64 63 63 65 67 68 67 66 66 65 64 63 62 62 61 60 60 59 59 59 61 61 60 59 58 58 58 59 58 58 57 56 56 56 55 54 54 54 55 57 57 57

ECMWFNIL_prec_cthk_048.txt.gz
RH
69 68 65 65 65 63 65 70 70 67 67 66 62 59 58 53 48 48 46 44 44 45 41 36 36 35 33 33 33 40 51 51 47 45 43 46 50 51 49 48 49 50
66 66 66 67 63 61 64 69 70 68 68 67 64 64 59 49 47 49 47 46 48 47 42 38 37 35 33 32 32 38 47 46 41 41 41 44 47 48 49 51 51 50
66 66 67 67 62 60 65 68 70 70 68 67 67 65 56 46 46 48 48 51 53 47 41 39 38 37 35 31 34 43 47 43 38 36 36 38 41 42 44 47 50 51
68 67 68 68 63 64 68 70 71 71 70 69 69 65 56 48 48 49 51 55 54 48 42 40 40 39 35 29 34 46 48 45 41 35 35 37 37 39 38 38 43 49
71 69 70 68 67 69 72 72 72 71 72 72 70 67 58 52 52 56 58 58 55 51 46 43 42 39 33 27 32 44 47 45 42 37 36 38 35 36 36 34 36 41
73 71 71 69 68 71 73 73 73 73 74 73 71 68 62 58 59 61 62 61 57 53 49 47 45 40 34 28 30 40 45 44 42 40 43 42 39 38 37 36 36 38
75 72 72 72 71 72 74 74 75 75 75 75 73 70 65 63 63 62 63 61 57 54 52 50 45 39 35 33 31 34 37 37 36 38 42 43 42 41 38 36 38 40
77 73 73 75 75 74 72 72 72 73 75 76 74 70 68 68 66 62 64 63 58 57 57 53 46 38 35 37 36 33 32 33 34 35 36 35 35 38 37 35 36 40
80 78 76 77 78 74 69 68 69 71 75 76 74 70 67 67 62 60 63 63 60 58 58 56 48 39 36 37 38 37 36 36 36 35 33 30 30 33 35 35 36 40
84 81 77 77 77 72 68 68 68 71 76 77 74 68 62 59 58 58 61 61 59 57 58 58 50 41 39 39 39 39 39 37 36 35 33 30 30 31 33 36 39 43
84 80 76 75 75 72 69 69 68 71 76 76 71 64 55 54 59 62 62 62 61 58 58 58 51 43 39 40 41 40 39 38 37 36 34 32 29 29 31 35 40 45
81 79 75 73 75 76 73 70 69 70 72 71 66 59 53 54 61 65 64 65 63 58 57 56 50 43 39 38 40 41 40 40 40 39 37 34 31 31 31 34 40 47
80 78 74 72 73 77 77 71 68 67 64 61 59 58 57 59 64 65 65 66 62 58 57 55 49 42 39 37 38 40 40 40 39 40 40 37 36 36 35 36 42 48
85 81 76 73 72 76 78 72 66 62 57 54 54 56 59 63 67 68 68 68 65 62 61 59 51 42 38 38 38 38 39 39 37 38 40 41 41 40 39 40 43 48
85 79 75 73 73 76 78 75 69 62 58 57 58 59 63 67 71 73 72 73 70 66 64 60 53 43 38 38 39 40 40 40 38 38 40 42 43 43 41 41 42 43
79 76 76 76 76 78 79 77 73 68 65 64 65 65 67 70 74 76 78 78 73 67 64 61 53 45 39 38 39 40 41 42 42 42 42 43 44 43 41 40 41 40
80 78 79 80 80 80 81 79 76 73 72 71 70 71 71 74 78 80 82 82 77 70 67 64 56 47 42 41 41 41 41 43 46 46 46 46 46 45 43 42 41 40
85 84 82 81 82 81 80 80 78 77 78 77 77 78 78 81 83 83 84 83 76 72 72 70 61 50 42 40 42 42 42 45 49 50 49 49 49 47 46 46 46 45
87 89 88 86 85 83 83 83 83 83 84 83 83 85 86 86 85 84 84 79 71 68 71 71 66 56 46 42 43 44 45 46 50 52 51 51 50 48 48 48 49 49
86 88 89 88 87 87 88 87 86 87 88 88 89 90 88 86 83 82 82 78 71 68 69 69 67 62 55 51 48 47 48 48 50 49 49 48 47 46 47 48 49 49
90 89 90 91 90 89 90 90 90 91 90 89 89 88 86 85 83 82 82 79 74 72 73 74 72 68 64 60 57 55 54 54 52 51 49 47 47 47 48 49 49 49
95 93 94 95 94 93 93 94 94 93 90 88 87 87 86 85 84 84 83 81 77 75 78 80 79 75 71 67 63 61 61 62 61 60 56 54 53 53 53 53 53 53
95 94 93 94 93 92 92 92 92 90 88 87 87 86 85 85 85 85 84 82 79 78 79 82 83 81 77 73 69 67 67 67 68 68 66 63 60 57 55 54 54 54
90 90 90 90 91 89 88 87 86 85 86 86 85 84 84 85 86 86 86 84 81 79 78 80 83 83 81 77 74 71 69 68 68 69 68 66 64 61 58 57 56 56
83 84 83 84 85 85 83 81 80 81 80 79 78 78 78 80 82 81 82 81 79 78 77 77 78 78 77 74 71 68 67 65 65 65 64 63 62 60 58 58 58 58
74 75 75 75 76 75 73 72 73 74 72 70 70 69 68 68 69 69 70 70 70 70 69 69 69 69 67 66 64 62 62 61 60 61 60 60 59 59 58 58 57 57